Location: Vallejo Observatory
(38.1221°N, 122.2109°W)
Time: 07:00:33
(UTC-08:00)

Daily predictions for brighter satellites

Satellite Brightness Start Highest point End
(mag) Time Altitude Azimuth Time Altitude Azimuth Time Altitude Azimuth
Cosmos 540 Rocket 4.1 17:38:37 10° SSE 17:43:19 37° E 17:48:02 10° NE
Cosmos 44 3.9 17:40:55 10° S 17:45:58 46° ESE 17:50:49 10° NE
Milstar 3 4.1 17:43:05 10° WSW 17:49:29 36° S 17:55:41 10° ESE
CORIOLIS 4.2 17:46:41 10° SSE 17:52:01 90° WSW 17:57:25 10° NNW
Cosmos 2333 Rocket 2.2 17:49:14 10° S 17:54:49 67° ESE 18:00:25 10° NNE
YAOGAN 1 2.9 17:53:18 10° S 17:57:36 74° WSW 18:01:57 10° NNW
CZ-4 R/B 4.4 17:53:49 10° SSE 17:57:57 85° ENE 18:02:07 10° N
USA 215 3.8 17:52:06 10° E 17:58:05 40° NNE 18:04:05 10° NW
Cosmos 371 Rocket 3.3 17:53:27 10° SSW 17:58:15 82° ESE 18:03:06 10° NNE
COSMO-SKYMED 1 2.8 17:54:25 10° NNE 17:58:39 51° E 18:02:52 10° S
Cosmos 2058 3.6 17:55:44 10° SSE 17:59:23 32° E 18:03:02 10° NNE
Cosmos 2219 Rocket 2.4 17:58:11 10° SSW 18:03:50 79° WNW 18:09:29 10° NNE
Haruka 4.2 18:01:27 10° SW 18:04:58 38° SSE 18:13:27 10° E
Atlas Centaur 2 4.2 18:03:03 10° WSW 18:06:41 18° SSW 18:09:51 10° SSE
SMAP 4.1 18:03:09 10° S 18:07:39 50° W 18:12:12 10° NNW
Cosmos 1626 3.8 18:05:34 10° SE 18:07:51 16° E 18:08:48 14° ENE
SPOT 3 Rocket 4.2 18:02:57 10° S 18:08:01 61° WSW 18:13:08 10° NNW
Cosmos 2228 Rocket 3.7 18:04:28 10° NNW 18:08:49 60° W 18:13:10 10° S
Thor Agena Rocket 4.2 18:03:57 10° N 18:09:07 60° WNW 18:14:12 10° SSW
Cosmos 1125 Rocket 3.5 18:04:15 10° N 18:09:24 60° ENE 18:14:31 10° SSE
Cosmos 1340 Rocket 3.4 18:08:48 10° SSE 18:12:23 34° E 18:15:57 10° NNE
Cosmos 2278 Rocket 2.3 18:07:29 10° NNW 18:13:04 55° ENE 18:18:37 10° SE
Meteor 1-27 4.4 18:11:39 10° N 18:17:20 52° ENE 18:23:00 10° SSE
SL-14 R/B 3.2 18:14:28 10° S 18:18:21 78° E 18:22:19 10° N
Cosmos 44 Rocket 4.0 18:13:28 10° SW 18:18:31 57° WNW 18:23:30 10° NNE
NOAA 12 4.3 18:15:42 10° SE 18:20:39 45° ENE 18:25:38 10° N
Cosmos 2279 Rocket 4.0 18:15:53 10° N 18:22:01 57° E 18:28:07 10° SSE
Cosmos 1356 Rocket 4.4 18:19:26 10° SE 18:22:38 23° E 18:23:48 20° ENE
Cosmos 1484 Rocket 3.1 18:18:56 10° S 18:22:48 69° W 18:26:47 10° NNW
Cosmos 1844 4.1 18:19:04 10° NNW 18:24:48 69° WSW 18:30:33 10° S
Cosmos 1726 2.2 18:22:24 10° N 18:26:11 84° W 18:29:57 10° S
Lacrosse 5 4.3 18:28:37 10° NNW 18:28:50 10° NNW 18:29:02 10° N
Cosmos 1300 2.8 18:26:53 10° N 18:30:43 76° W 18:34:32 10° S
Cosmos 2151 3.2 18:26:54 10° SSW 18:31:05 72° W 18:35:18 10° N
H-2A ROCKET BODY 4.2 18:01:07 10° WSW 18:33:30 49° S 18:39:02 15° ESE
Cosmos 2237 Rocket 2.4 18:30:35 10° SSW 18:36:10 71° WNW 18:41:49 10° NNE
Aureole 2 Rocket 2.5 18:34:21 10° SSW 18:37:57 89° ESE 18:41:14 14° NNE
CENTAUR R/B 4.2 18:33:30 10° W 18:38:45 28° NW 18:44:34 10° NNE
Nadezhda 4 Rocket 4.2 18:34:39 10° SSE 18:40:31 45° E 18:46:28 10° NNE
Cosmos 304 Rocket 3.7 18:36:51 10° S 18:41:36 64° ESE 18:45:19 17° NNE
SL-16 R/B 2.3 18:36:10 10° S 18:41:38 53° ESE 18:45:34 19° NE
Abrixas 2.6 18:39:12 10° WSW 18:42:06 64° NNW 18:42:45 46° NNE
Cosmos 2180 Rocket 4.4 18:36:21 10° N 18:42:30 70° E 18:48:41 10° SSE
Aureole 1 Rocket 4.5 18:38:52 10° SSE 18:43:08 28° E 18:44:10 27° ENE
Iridium 4 Rocket 4.4 18:40:26 10° SE 18:43:01 23° ESE 18:43:01 23° ESE
Cosmos 1151 Rocket 4.2 18:43:24 10° NNW 18:47:30 45° W 18:51:35 10° SSW
Cosmos 1805 Rocket 3.5 18:43:31 10° S 18:47:57 74° E 18:52:25 10° N
Lacrosse 5 rocket 1.3 18:47:31 10° NNW 18:51:16 53° NE 18:51:53 47° E
Timation 1 Rocket 4.3 18:47:01 10° NNW 18:53:00 62° ENE 18:58:56 10° SE
Cosmos 2297 3.7 18:47:49 10° NNW 18:53:27 55° ENE 18:59:02 10° SE
Meteor 1-28 Rocket 4.3 18:51:36 10° N 18:55:09 43° WNW 18:58:40 10° SW
Cosmos 1092 Rocket 4.2 18:52:58 10° SSE 18:58:55 46° E 19:04:56 10° NNE
BREEZE-M DEB (TANK) 3.4 19:04:06 10° W 19:05:55 31° NW 19:05:55 31° NW
Sich 1 2.9 19:05:05 10° S 19:09:31 82° E 19:11:18 36° NNE
OTV 4 2.3 19:10:04 10° W 19:12:19 27° SW 19:12:19 27° SW
Cosmos 773 Rocket 4.0 19:08:33 10° S 19:13:33 56° ESE 19:13:43 55° E
Cosmos 1633 Rocket 2.9 19:09:49 10° S 19:14:14 81° E 19:14:59 60° NNE
SJ-6B 3.7 19:14:33 10° S 19:18:30 51° W 19:22:31 10° NNW
ALOS 2.1 19:20:06 10° SSE 19:24:46 89° WSW 19:29:28 10° NNW
CZ-3A R/B 2.8 19:20:21 10° NW 19:24:53 70° NE 19:26:00 54° ESE
FengYun 1-2 T 4.1 19:19:48 10° SSE 19:25:23 90° W 19:30:57 10° NNW
FENGYUN 3A 3.5 19:22:12 10° SSE 19:27:33 90° ENE 19:32:57 10° NNW
Resurs 01 Rocket 2.4 19:32:40 42° NNW 19:32:40 42° NNW 19:35:40 10° NNW
Cosmos 1461 3.6 19:27:09 10° SW 19:31:14 48° WNW 19:31:20 48° NW
USA 215 3.6 19:36:43 24° SSE 19:40:50 63° SW 19:47:21 10° NW
Cosmos 1626 4.1 19:39:45 10° SW 19:42:57 27° WNW 19:43:34 26° WNW
Spot 2 Rocket 4.3 19:51:44 10° S 19:56:36 48° W 20:01:29 10° NNW
USA 229 DEB 4.2 20:18:25 10° SW 20:24:31 56° WNW 20:24:31 56° WNW
USA 229 4.2 20:18:30 10° SW 20:24:33 56° WNW 20:24:33 56° WNW
SL-16 R/B 4.3 20:21:48 10° WSW 20:26:04 22° NW 20:27:31 20° NW
